Location: ????????
(55.6189°N, 38.3031°E)
Time: 00:39:40
(UTC+00:00)

SL-16 R/B - Pass Details

Date: 01 March 2020
Orbit: 843 x 847 km, 71.0° (Epoch: 01 April)

Event Time Altitude Azimuth Distance (km) Brightness Sun altitude
Exits shadow 00:03:01 45° 30° (NNE) 1,151 3.1 -34.1°
Drops below altitude 10° 00:06:50 10° 34° (NE) 2,477 5.4 -33.7°
Sets 00:09:18 0° 35° (NE) 3,415 6.4 -33.5°
